TV
NORAD ID: 27403
Int'l Code: 2002-016A
Perigee: 35,779.9 km
Apogee: 35,807.3 km
Inclination: 0.0 °
Period: 1,436.1 minutes
Semi major axis: 42164 km
Launch date: March 30, 2002
Source: International Telecommunications Satellite Organiz (ITSO)
Comments: 76 C-band, 22 Ku-band, broadcasting, business services, direct-to-home TV broadcasting, telecommunications, VSAT networks; Atlantic Ocean region.
Two Line Element Set (TLE):
1 27403U 02016A 13141.12456192 -.00000235 00000-0 00000+0 0 8602
2 27403 000.0081 004.2255 0003244 076.5028 168.5584 01.00272219 40876
Source: AFSPC
NASA's NSSDC Master Catalog entry for INTELSAT 903